Location: Bacharowice
(49.9333°N, 19.5833°E)
Time: 23:42:54
(UTC+00:00)

SOZ - Pass Details

Date: 07 October 2021
Orbit: 306 x 16687 km, 52.0° (Epoch: 18 October)

Event Time Altitude Azimuth Distance (km) Brightness Sun altitude
Rises 20:28:41 0° 167° (SSE) 22,159 13.0 -39.2°
Reaches altitude 10° 21:01:50 10° 164° (SSE) 20,250 12.7 -42.2°
Enters shadow 21:08:02 12° 163° (SSE) 19,699 12.6 -42.7°
Exits shadow 22:12:01 35° 135° (SE) 10,073 11.2 -45.8°
Maximum altitude 22:18:51 36° 124° (SE) 8,685 10.9 -45.9°
Drops below altitude 10° 22:38:50 10° 69° (ENE) 5,985 10.7 -45.9°
Sets 22:42:01 0° 60° (ENE) 6,131 11.0 -45.9°
